This is the latest recevied weather packets stored in our database for station/object K3TLB-13. If no packets are shown the sender has not sent any weather packets the latest 10 day(s).
| Time | Temp. | Humidity | Pressure | Rain* | Wind** | Luminosity | Snow |
|---|---|---|---|---|---|---|---|
| 1778275734 | 18.33° C | 40% | 1011.3 hPa | 0 mm | - | - | - |
| 1778275432 | 18.33° C | 38% | 1011.4 hPa | 0 mm | - | - | - |
| 1778275132 | 18.33° C | 37% | 1011.3 hPa | 0 mm | - | - | - |
| 1778274832 | 18.33° C | 40% | 1011.3 hPa | 0 mm | - | - | - |
| 1778274531 | 18.33° C | 36% | 1011.3 hPa | 0 mm | - | - | - |
| 1778274232 | 18.33° C | 36% | 1011.3 hPa | 0 mm | - | - | - |
| 1778274024 | 18.33° C | 37% | 1011.2 hPa | 0 mm | - | - | - |
| 1778273931 | 18.33° C | 37% | 1011.2 hPa | 0 mm | - | - | - |
| 1778273711 | 18.33° C | 37% | 1011.3 hPa | 0 mm | - | - | - |
| 1778273632 | 18.33° C | 37% | 1011.3 hPa | 0 mm | - | - | - |
| 1778273416 | 18.33° C | 40% | 1011.4 hPa | 0 mm | - | - | - |
| 1778273331 | 18.33° C | 40% | 1011.4 hPa | 0 mm | - | - | - |
| 1778273033 | 18.33° C | 38% | 1011.4 hPa | 0 mm | - | - | - |
| 1778273007 | 18.33° C | 35% | 1011.5 hPa | 0 mm | - | - | - |
| 1778272731 | 18.33° C | 36% | 1011.3 hPa | 0 mm | - | - | - |
| 1778272432 | 18.33° C | 35% | 1011.5 hPa | 0 mm | - | - | - |
| 1778272131 | 18.89° C | 37% | 1011.6 hPa | 0 mm | - | - | - |
| 1778271832 | 18.89° C | 37% | 1011.5 hPa | 0 mm | - | - | - |
| 1778271531 | 18.89° C | 34% | 1011.5 hPa | 0 mm | - | - | - |
| 1778271231 | 18.89° C | 36% | 1011.4 hPa | 0 mm | - | - | - |
| 1778270931 | 18.89° C | 36% | 1011.4 hPa | 0 mm | - | - | - |
| 1778270632 | 18.89° C | 36% | 1011.5 hPa | 0 mm | - | - | - |
| 1778270332 | 18.89° C | 36% | 1011.5 hPa | 0 mm | - | - | - |
| 1778270031 | 18.89° C | 36% | 1011.5 hPa | 0 mm | - | - | - |
| 1778269812 | 18.89° C | 39% | 1011.5 hPa | 0 mm | - | - | - |
* Rain latest hour (hover to see other rain measurements)
** Current wind speed in m/s (hover to see current wind gust speed)